Location: Betz
(49.1556°N, 2.9558°E)
Time: 09:59:13
(UTC+00:00)

COSMOS 2428 - Pass Details

Date: 18 September 2019
Orbit: 846 x 856 km, 70.9° (Epoch: 15 October)

Event Time Altitude Azimuth Distance (km) Brightness Sun altitude
Rises 18:37:15 0° 331° (NNW) 3,418 6.5 -7.6°
Reaches altitude 10° 18:39:43 10° 331° (NNW) 2,478 5.8 -8.0°
Maximum altitude 18:45:25 89° 51° (NE) 853 2.7 -8.9°
Drops below altitude 10° 18:51:06 10° 153° (SSE) 2,465 4.7 -9.8°
Sets 18:53:32 0° 154° (SSE) 3,398 5.5 -10.2°
